• In Netherlands
  • List of Countries
  • For 7 days
  • Water Temperature
  • Satellite Maps
  • Weather Map
  • Weather Widgets
  • user-avatar
    Login

    Hourly Weather Korçe

    Today, 29 May, Monday

    Time Temperature Precipitation Wind Pressure Humidity
    00:00 +7°C° 0 mm 2 mps 668 mmHg 88%
    01:00 +7°C° 0 mm 2 mps 668 mmHg 89%
    02:00 +7°C° 0 mm 2 mps 668 mmHg 89%
    03:00 +7°C° 0 mm 2 mps 668 mmHg 89%
    04:00 +6°C° 0 mm 2 mps 667 mmHg 89%
    05:00 +8°C° 0 mm 2 mps 668 mmHg 83%
    06:00 +10°C° 0 mm 2 mps 669 mmHg 77%
    07:00 +13°C° 0 mm 1 mps 669 mmHg 71%
    08:00 +15°C° 0 mm 1 mps 670 mmHg 64%
    09:00 +18°C° 0 mm 1 mps 670 mmHg 56%
    10:00 +20°C° 0 mm 1 mps 670 mmHg 49%
    11:00 +20°C° 0.4 mm 1 mps 670 mmHg 50%
    12:00 +19°C° 0.4 mm 2 mps 670 mmHg 52%
    13:00 +19°C° 0.4 mm 2 mps 670 mmHg 53%
    14:00 +19°C° 1 mm 2 mps 669 mmHg 57%
    15:00 +18°C° 1 mm 2 mps 669 mmHg 61%
    16:00 +18°C° 1 mm 2 mps 669 mmHg 64%
    17:00 +15°C° 0.4 mm 1 mps 668 mmHg 72%
    18:00 +13°C° 0.4 mm 1 mps 667 mmHg 79%
    19:00 +11°C° 0.4 mm 1 mps 667 mmHg 86%
    20:00 +10°C° 0.1 mm 1 mps 667 mmHg 87%
    21:00 +9°C° 0.1 mm 1 mps 667 mmHg 88%
    22:00 +8°C° 0.1 mm 0 mps 666 mmHg 89%
    23:00 +7°C° 0.1 mm 0 mps 666 mmHg 89%

    Tomorrow, 30 May, Tuesday

    Time Temperature Precipitation Wind Pressure Humidity
    00:00 +7°C° 0.1 mm 0 mps 666 mmHg 89%
    01:00 +7°C° 0.1 mm 0 mps 666 mmHg 89%
    02:00 +6°C° 0 mm 0 mps 666 mmHg 90%
    03:00 +6°C° 0 mm 0 mps 666 mmHg 90%
    04:00 +6°C° 0 mm 0 mps 666 mmHg 90%
    05:00 +9°C° 0 mm 0 mps 667 mmHg 83%
    06:00 +12°C° 0 mm 0 mps 668 mmHg 76%
    07:00 +15°C° 0 mm 0 mps 669 mmHg 68%
    08:00 +16°C° 0.2 mm 0 mps 669 mmHg 64%
    09:00 +19°C° 0.2 mm 1 mps 670 mmHg 59%
    10:00 +21°C° 0.2 mm 1 mps 670 mmHg 54%
    11:00 +21°C° 0.5 mm 1 mps 670 mmHg 54%
    12:00 +20°C° 0.5 mm 2 mps 670 mmHg 54%
    13:00 +20°C° 0.5 mm 2 mps 670 mmHg 54%
    14:00 +20°C° 0.3 mm 2 mps 670 mmHg 54%
    15:00 +19°C° 0.3 mm 2 mps 670 mmHg 55%
    16:00 +19°C° 0.3 mm 2 mps 669 mmHg 56%
    17:00 +16°C° 0.1 mm 2 mps 669 mmHg 64%
    18:00 +14°C° 0.1 mm 2 mps 669 mmHg 72%
    19:00 +12°C° 0.1 mm 1 mps 668 mmHg 80%
    20:00 +11°C° 0 mm 1 mps 668 mmHg 81%
    21:00 +10°C° 0 mm 1 mps 668 mmHg 81%
    22:00 +9°C° 0 mm 1 mps 668 mmHg 81%
    23:00 +8°C° 0 mm 1 mps 668 mmHg 81%

    Day after tomorrow, 31 May, Wednesday

    Time Temperature Precipitation Wind Pressure Humidity
    00:00 +8°C° 0 mm 1 mps 668 mmHg 81%
    01:00 +8°C° 0 mm 1 mps 668 mmHg 80%
    02:00 +8°C° 0 mm 1 mps 667 mmHg 81%
    03:00 +7°C° 0 mm 1 mps 667 mmHg 81%
    04:00 +7°C° 0 mm 1 mps 667 mmHg 81%
    05:00 +10°C° 0 mm 1 mps 668 mmHg 72%
    06:00 +13°C° 0 mm 1 mps 669 mmHg 63%
    07:00 +16°C° 0 mm 1 mps 670 mmHg 55%
    08:00 +18°C° 0 mm 1 mps 671 mmHg 51%
    09:00 +20°C° 0 mm 1 mps 671 mmHg 47%
    10:00 +21°C° 0 mm 2 mps 672 mmHg 43%
    11:00 +21°C° 0 mm 2 mps 672 mmHg 42%
    12:00 +23°C° 0 mm 2 mps 672 mmHg 42%
    13:00 +22°C° 0 mm 3 mps 671 mmHg 41%
    14:00 +22°C° 0.1 mm 3 mps 671 mmHg 45%
    15:00 +21°C° 0.1 mm 3 mps 671 mmHg 48%
    16:00 +21°C° 0.1 mm 3 mps 670 mmHg 51%
    17:00 +18°C° 0 mm 2 mps 670 mmHg 62%
    18:00 +15°C° 0 mm 2 mps 669 mmHg 72%
    19:00 +13°C° 0 mm 1 mps 668 mmHg 83%
    20:00 +12°C° 0 mm 1 mps 668 mmHg 84%
    21:00 +11°C° 0 mm 1 mps 668 mmHg 86%
    22:00 +10°C° 0 mm 1 mps 668 mmHg 88%
    23:00 +9°C° 0 mm 1 mps 668 mmHg 87%

    1 June, Thursday

    Time Temperature Precipitation Wind Pressure Humidity
    00:00 +9°C° 0 mm 1 mps 668 mmHg 87%
    01:00 +9°C° 0 mm 1 mps 668 mmHg 86%
    02:00 +9°C° 0 mm 1 mps 667 mmHg 85%
    03:00 +8°C° 0 mm 1 mps 667 mmHg 84%
    04:00 +8°C° 0 mm 1 mps 667 mmHg 83%
    05:00 +11°C° 0 mm 1 mps 668 mmHg 72%
    06:00 +14°C° 0 mm 1 mps 669 mmHg 62%
    07:00 +18°C° 0 mm 1 mps 670 mmHg 51%
    08:00 +20°C° 0 mm 1 mps 670 mmHg 46%
    09:00 +22°C° 0 mm 1 mps 671 mmHg 42%
    10:00 +23°C° 0 mm 1 mps 671 mmHg 37%
    11:00 +24°C° 0 mm 2 mps 671 mmHg 37%
    12:00 +25°C° 0 mm 2 mps 671 mmHg 37%
    13:00 +25°C° 0 mm 2 mps 671 mmHg 36%
    14:00 +24°C° 0 mm 3 mps 670 mmHg 39%
    15:00 +24°C° 0 mm 3 mps 670 mmHg 43%
    16:00 +22°C° 0 mm 3 mps 670 mmHg 46%
    17:00 +19°C° 0 mm 2 mps 669 mmHg 57%
    18:00 +17°C° 0 mm 2 mps 668 mmHg 68%
    19:00 +14°C° 0 mm 1 mps 668 mmHg 79%
    20:00 +13°C° 0 mm 1 mps 668 mmHg 80%
    21:00 +12°C° 0 mm 1 mps 668 mmHg 82%
    22:00 +11°C° 0 mm 1 mps 668 mmHg 83%
    23:00 +10°C° 0 mm 1 mps 667 mmHg 80%

    2 June, Friday

    Time Temperature Precipitation Wind Pressure Humidity
    00:00 +10°C° 0 mm 1 mps 667 mmHg 78%
    01:00 +9°C° 0 mm 1 mps 667 mmHg 76%
    02:00 +9°C° 0 mm 1 mps 667 mmHg 73%
    03:00 +9°C° 0 mm 1 mps 666 mmHg 70%
    04:00 +9°C° 0 mm 1 mps 666 mmHg 67%
    05:00 +12°C° 0 mm 1 mps 667 mmHg 60%
    06:00 +15°C° 0 mm 1 mps 668 mmHg 54%
    07:00 +19°C° 0 mm 1 mps 669 mmHg 47%
    08:00 +21°C° 0 mm 1 mps 669 mmHg 43%
    09:00 +22°C° 0 mm 1 mps 670 mmHg 40%
    10:00 +24°C° 0 mm 1 mps 670 mmHg 36%
    11:00 +25°C° 0 mm 2 mps 670 mmHg 35%
    12:00 +25°C° 0 mm 2 mps 670 mmHg 34%
    13:00 +25°C° 0 mm 3 mps 670 mmHg 34%
    14:00 +25°C° 0 mm 3 mps 670 mmHg 36%
    15:00 +24°C° 0 mm 3 mps 669 mmHg 39%
    16:00 +24°C° 0 mm 3 mps 669 mmHg 42%
    17:00 +20°C° 0.1 mm 2 mps 668 mmHg 54%
    18:00 +17°C° 0.1 mm 2 mps 667 mmHg 66%
    19:00 +14°C° 0.1 mm 2 mps 667 mmHg 78%
    20:00 +13°C° 0.1 mm 1 mps 667 mmHg 79%
    21:00 +12°C° 0.1 mm 1 mps 666 mmHg 81%
    22:00 +11°C° 0.1 mm 1 mps 666 mmHg 83%
    23:00 +11°C° 0 mm 1 mps 666 mmHg 82%

    3 June, Saturday

    Time Temperature Precipitation Wind Pressure Humidity
    00:00 +10°C° 0 mm 1 mps 666 mmHg 82%
    01:00 +10°C° 0 mm 1 mps 665 mmHg 81%
    02:00 +10°C° 0 mm 1 mps 665 mmHg 80%
    03:00 +9°C° 0 mm 1 mps 665 mmHg 78%
    04:00 +9°C° 0 mm 1 mps 665 mmHg 77%
    05:00 +12°C° 0 mm 1 mps 666 mmHg 69%
    06:00 +15°C° 0 mm 1 mps 667 mmHg 62%
    07:00 +19°C° 0 mm 1 mps 668 mmHg 54%
    08:00 +21°C° 0 mm 1 mps 668 mmHg 49%
    09:00 +23°C° 0 mm 1 mps 669 mmHg 44%
    10:00 +24°C° 0 mm 1 mps 669 mmHg 39%
    11:00 +25°C° 0.2 mm 1 mps 669 mmHg 39%
    12:00 +25°C° 0.2 mm 1 mps 669 mmHg 39%
    13:00 +25°C° 0.2 mm 2 mps 669 mmHg 40%
    14:00 +25°C° 0.5 mm 2 mps 669 mmHg 44%
    15:00 +24°C° 0.5 mm 2 mps 668 mmHg 48%
    16:00 +23°C° 0.5 mm 2 mps 668 mmHg 51%
    17:00 +20°C° 0.3 mm 2 mps 668 mmHg 61%
    18:00 +17°C° 0.3 mm 2 mps 667 mmHg 71%
    19:00 +15°C° 0.3 mm 1 mps 667 mmHg 82%
    20:00 +14°C° 0.1 mm 1 mps 667 mmHg 82%
    21:00 +14°C° 0.1 mm 1 mps 667 mmHg 83%
    22:00 +13°C° 0.1 mm 1 mps 667 mmHg 84%
    23:00 +13°C° 0 mm 1 mps 667 mmHg 83%
    Show more